KF5JED-13 Weather Reports


Display with metric or nautical units.
time (UTC)temp
F
wind
direction
speed
MPH
gust
MPH
rain 1hr
in
rain 24hr
in
rain mn
in
humidity
%
barometer
mb
20260503210410 77 229 14.0 25.0 0.00 0.00 0.00 25 1014.3
20260503205904 77 206 13.0 16.0 0.00 0.00 0.00 25 1014.5
20260503205402 77 210 15.0 18.0 0.00 0.00 0.00 25 1014.6
20260503204858 77 239 17.0 22.0 0.00 0.00 0.00 24 1014.6
20260503204356 78 225 12.0 18.0 0.00 0.00 0.00 24 1014.8
20260503203853 77 234 12.0 16.0 0.00 0.00 0.00 24 1014.8
20260503203350 77 205 19.0 27.0 0.00 0.00 0.00 25 1015.0
20260503202846 78 207 18.0 21.0 0.00 0.00 0.00 24 1015.2
20260503202345 79 225 16.0 18.0 0.00 0.00 0.00 24 1015.2
20260503201843 77 234 16.0 23.0 0.00 0.00 0.00 25 1015.3
20260503201339 77 221 14.0 18.0 0.00 0.00 0.00 25 1015.3
20260503200837 76 229 10.0 18.0 0.00 0.00 0.00 25 1015.5
20260503200332 77 213 16.0 22.0 0.00 0.00 0.00 25 1015.5
20260503195831 77 231 20.0 23.0 0.00 0.00 0.00 26 1015.6
20260503195327 77 209 20.0 23.0 0.00 0.00 0.00 24 1015.6
20260503194824 76 225 14.0 25.0 0.00 0.00 0.00 25 1016.1
20260503194320 76 206 8.0 19.0 0.00 0.00 0.00 26 1016.0
20260503193816 76 207 14.0 26.0 0.00 0.00 0.00 25 1016.0
20260503193312 78 229 13.0 23.0 0.00 0.00 0.00 24 1016.1
20260503192808 76 199 19.0 22.0 0.00 0.00 0.00 26 1016.1
20260503192305 74 216 14.0 25.0 0.00 0.00 0.00 28 1016.1
20260503191800 75 207 14.0 22.0 0.00 0.00 0.00 27 1016.5
20260503191258 74 232 17.0 28.0 0.00 0.00 0.00 27 1016.5
20260503190754 75 217 13.0 25.0 0.00 0.00 0.00 27 1016.2
20260503190251 74 217 15.0 21.0 0.00 0.00 0.00 29 1016.5
20260503185748 75 225 18.0 23.0 0.00 0.00 0.00 27 1016.7
20260503185244 74 228 17.0 23.0 0.00 0.00 0.00 27 1016.8
20260503184738 75 224 9.0 22.0 0.00 0.00 0.00 27 1016.7
20260503184235 75 208 17.0 27.0 0.00 0.00 0.00 26 1016.9
20260503183731 74 215 21.0 28.0 0.00 0.00 0.00 28 1017.1
20260503183229 74 192 18.0 30.0 0.00 0.00 0.00 29 1017.0
20260503182726 74 229 16.0 21.0 0.00 0.00 0.00 29 1017.5
20260503182225 73 211 18.0 26.0 0.00 0.00 0.00 30 1017.2
20260503181721 74 220 14.0 18.0 0.00 0.00 0.00 28 1017.6
20260503181218 74 224 16.0 20.0 0.00 0.00 0.00 28 1017.5
20260503180715 74 209 17.0 23.0 0.00 0.00 0.00 28 1017.7
20260503180213 72 224 13.0 21.0 0.00 0.00 0.00 29 1017.7
20260503175710 72 218 10.0 25.0 0.00 0.00 0.00 29 1017.7
20260503175208 73 213 15.0 21.0 0.00 0.00 0.00 29 1017.8
20260503174703 72 203 14.0 24.0 0.00 0.00 0.00 31 1017.9
20260503174201 73 223 18.0 21.0 0.00 0.00 0.00 30 1018.0
20260503173656 71 216 16.0 21.0 0.00 0.00 0.00 32 1018.0
20260503173152 71 230 19.0 28.0 0.00 0.00 0.00 31 1018.1
20260503172649 71 229 14.0 24.0 0.00 0.00 0.00 32 1018.4
20260503172147 71 205 16.0 23.0 0.00 0.00 0.00 30 1018.5
20260503171643 71 203 15.0 23.0 0.00 0.00 0.00 33 1018.7
20260503171141 71 223 12.0 28.0 0.00 0.00 0.00 32 1018.5
20260503170637 70 208 11.0 21.0 0.00 0.00 0.00 33 1018.7
20260503170134 71 210 21.0 25.0 0.00 0.00 0.00 32 1018.9
20260503150526 64 229 12.0 21.0 0.00 0.00 0.00 47 1019.8
20260503131419 51 211 6.0 9.0 0.00 0.00 0.00 69 1020.4
20260503130915 51 220 4.0 8.0 0.00 0.00 0.00 71 1020.1
20260503130413 50 216 6.0 15.0 0.00 0.00 0.00 71 1020.2
20260503110812 47 229 2.0 7.0 0.00 0.00 0.00 76 1019.6
20260503110309 46 192 2.0 3.0 0.00 0.00 0.00 76 1019.6
20260503100235 50 224 2.0 11.0 0.00 0.00 0.00 70 1020.0
20260503090154 50 239 6.0 9.0 0.00 0.00 0.00 63 1019.7
20260503081629 51 220 3.0 11.0 0.00 0.00 0.00 58 1019.9
20260503081126 52 211 5.0 13.0 0.00 0.00 0.00 58 1019.9
20260503080622 52 236 5.0 14.0 0.00 0.00 0.00 57 1019.8
20260503080119 52 226 11.0 13.0 0.00 0.00 0.00 56 1019.8
20260503072556 52 223 6.0 9.0 0.00 0.00 0.00 53 1020.1
20260503072054 52 214 4.0 11.0 0.00 0.00 0.00 52 1020.1
20260503071550 51 206 7.0 9.0 0.00 0.00 0.00 52 1020.2
20260503071047 51 191 4.0 5.0 0.00 0.00 0.00 51 1020.2
20260503070543 51 197 4.0 6.0 0.00 0.00 0.00 51 1020.2
20260503055003 50 212 3.0 4.0 0.00 0.00 0.00 47 1020.1
20260503054458 50 184 4.0 5.0 0.00 0.00 0.00 46 1020.1
20260503053956 51 177 3.0 3.0 0.00 0.00 0.00 45 1020.0
20260503053454 51 183 2.0 3.0 0.00 0.00 0.00 46 1020.2
20260503052950 50 177 2.0 4.0 0.00 0.00 0.00 46 1020.1
20260503052448 51 180 3.0 4.0 0.00 0.00 0.00 45 1020.0
20260503051944 52 180 3.0 4.0 0.00 0.00 0.00 43 1020.1
20260503051440 53 192 2.0 3.0 0.00 0.00 0.00 42 1020.2
20260503050938 53 187 3.0 4.0 0.00 0.00 0.00 43 1020.0
20260503050433 53 192 4.0 5.0 0.00 0.00 0.00 42 1020.1
20260503045931 53 193 1.0 4.0 0.00 0.00 0.00 41 1020.0
20260503045429 53 196 3.0 3.0 0.00 0.00 0.00 41 1020.0
20260503044925 53 208 3.0 4.0 0.00 0.00 0.00 41 1020.0
20260503044422 53 205 3.0 4.0 0.00 0.00 0.00 40 1020.1
20260503043920 53 177 1.0 2.0 0.00 0.00 0.00 41 1020.1
20260503043416 53 184 4.0 4.0 0.00 0.00 0.00 40 1020.0
20260503042912 53 186 2.0 3.0 0.00 0.00 0.00 41 1019.9
20260503042409 51 173 1.0 4.0 0.00 0.00 0.00 41 1020.1
20260503041905 49 150 2.0 3.0 0.00 0.00 0.00 42 1020.0
20260503041402 49 159 2.0 3.0 0.00 0.00 0.00 42 1020.0
20260503040900 49 167 2.0 3.0 0.00 0.00 0.00 42 1020.0
20260503040357 47 142 2.0 3.0 0.00 0.00 0.00 43 1020.1
20260503035854 48 146 3.0 3.0 0.00 0.00 0.00 41 1020.1
20260503035351 49 144 3.0 3.0 0.00 0.00 0.00 41 1019.9
20260503034848 48 162 2.0 3.0 0.00 0.00 0.00 41 1020.1
20260503034346 48 153 3.0 3.0 0.00 0.00 0.00 41 1020.1
20260503033843 49 142 2.0 3.0 0.00 0.00 0.00 40 1020.1
20260503033340 49 161 3.0 3.0 0.00 0.00 0.00 40 1020.0
20260503032838 49 136 2.0 3.0 0.00 0.00 0.00 38 1020.0
20260503032337 50 152 3.0 3.0 0.00 0.00 0.00 38 1020.0
20260503031834 51 141 2.0 3.0 0.00 0.00 0.00 36 1019.9
20260503031332 53 145 2.0 2.0 0.00 0.00 0.00 35 1019.9
20260503030828 54 139 2.0 3.0 0.00 0.00 0.00 35 1019.9
20260503030324 55 159 2.0 2.0 0.00 0.00 0.00 34 1019.8
20260503025821 55 154 1.0 2.0 0.00 0.00 0.00 34 1019.7
20260503025319 55 148 2.0 3.0 0.00 0.00 0.00 33 1019.7
20260503024815 56 153 3.0 3.0 0.00 0.00 0.00 32 1019.7
20260503024312 57 145 2.0 3.0 0.00 0.00 0.00 32 1019.8
20260503023809 57 133 2.0 2.0 0.00 0.00 0.00 32 1019.7
20260503023307 58 143 3.0 3.0 0.00 0.00 0.00 31 1019.7
20260503022803 57 136 2.0 2.0 0.00 0.00 0.00 31 1019.5
20260503022304 58 138 2.0 3.0 0.00 0.00 0.00 32 1019.7
20260503021759 58 134 2.0 3.0 0.00 0.00 0.00 30 1019.6
20260503021255 61 149 3.0 5.0 0.00 0.00 0.00 29 1019.5
20260503020753 62 132 2.0 2.0 0.00 0.00 0.00 29 1019.5
20260503020251 62 134 2.0 2.0 0.00 0.00 0.00 29 1019.6
20260503015747 62 149 2.0 2.0 0.00 0.00 0.00 28 1019.2
20260503015244 63 137 2.0 2.0 0.00 0.00 0.00 28 1019.5
20260503014740 64 181 0.0 2.0 0.00 0.00 0.00 27 1019.1
20260503014238 63 208 1.0 2.0 0.00 0.00 0.00 28 1019.4
20260503013735 63 198 0.0 2.0 0.00 0.00 0.00 28 1019.1
20260503013233 63 195 2.0 4.0 0.00 0.00 0.00 27 1019.1
20260503012730 64 180 2.0 3.0 0.00 0.00 0.00 27 1019.2
20260503012227 65 187 3.0 4.0 0.00 0.00 0.00 26 1018.8
20260503011724 66 198 3.0 4.0 0.00 0.00 0.00 25 1019.0
20260503011221 67 204 4.0 7.0 0.00 0.00 0.00 24 1019.0
20260503010717 68 200 6.0 8.0 0.00 0.00 0.00 24 1019.0
20260503010214 68 163 2.0 4.0 0.00 0.00 0.00 24 1018.9
20260503005711 69 201 4.0 6.0 0.00 0.00 0.00 23 1019.1
20260503005209 70 204 3.0 5.0 0.00 0.00 0.00 22 1018.9
20260503004704 71 176 3.0 5.0 0.00 0.00 0.00 22 1018.8
20260503004203 71 195 4.0 6.0 0.00 0.00 0.00 21 1018.8
20260503003659 71 145 2.0 4.0 0.00 0.00 0.00 22 1018.8
20260503003156 72 161 6.0 7.0 0.00 0.00 0.00 21 1018.8
20260503002653 72 168 6.0 7.0 0.00 0.00 0.00 21 1018.9
20260503002150 72 203 8.0 9.0 0.00 0.00 0.00 22 1018.8
20260503001646 71 202 5.0 9.0 0.00 0.00 0.00 22 1018.7
20260503001143 73 214 6.0 7.0 0.00 0.00 0.00 21 1018.8
20260503000641 74 226 3.0 6.0 0.00 0.00 0.00 20 1019.0
20260503000138 73 273 2.0 4.0 0.00 0.00 0.00 20 1018.9
20260502235634 73 236 3.0 5.0 0.00 0.00 0.00 20 1019.0
20260502235133 74 348 2.0 4.0 0.00 0.00 0.00 20 1018.8
20260502234628 71 236 3.0 5.0 0.00 0.00 0.00 21 1019.0
20260502234126 71 202 4.0 6.0 0.00 0.00 0.00 21 1018.9
20260502233621 73 39 2.0 4.0 0.00 0.00 0.00 20 1018.8
20260502233118 73 153 9.0 11.0 0.00 0.00 0.00 21 1019.0
20260502232614 73 173 8.0 10.0 0.00 0.00 0.00 21 1018.9
20260502232112 73 185 7.0 10.0 0.00 0.00 0.00 21 1018.9
20260502231608 72 160 7.0 11.0 0.00 0.00 0.00 22 1018.9
20260502231107 71 193 4.0 9.0 0.00 0.00 0.00 22 1018.9
20260502230604 71 231 6.0 7.0 0.00 0.00 0.00 21 1018.9
20260502225558 74 327 1.0 5.0 0.00 0.00 0.00 20 1019.0
20260502225055 74 327 5.0 10.0 0.00 0.00 0.00 20 1018.9
20260502224551 73 217 8.0 9.0 0.00 0.00 0.00 21 1019.1
20260502224048 74 351 4.0 10.0 0.00 0.00 0.00 20 1019.0
20260502223546 74 66 4.0 7.0 0.00 0.00 0.00 21 1019.1
20260502223044 74 356 3.0 6.0 0.00 0.00 0.00 20 1019.0
20260502222541 73 36 3.0 8.0 0.00 0.00 0.00 21 1019.1
20260502222037 74 302 3.0 7.0 0.00 0.00 0.00 21 1019.2
20260502221533 73 324 7.0 8.0 0.00 0.00 0.00 21 1019.2
20260502221031 74 314 11.0 11.0 0.00 0.00 0.00 21 1019.2
20260502220526 75 312 7.0 8.0 0.00 0.00 0.00 20 1019.4
20260502220024 73 51 7.0 9.0 0.00 0.00 0.00 22 1019.4
20260502215521 70 358 7.0 8.0 0.00 0.00 0.00 22 1019.5
20260502215017 71 359 4.0 9.0 0.00 0.00 0.00 21 1019.2
20260502214515 74 326 7.0 8.0 0.00 0.00 0.00 20 1019.6
20260502214012 73 327 3.0 7.0 0.00 0.00 0.00 21 1019.7
20260502213508 72 315 6.0 12.0 0.00 0.00 0.00 21 1019.6
20260502213007 73 315 6.0 7.0 0.00 0.00 0.00 20 1019.9
20260502212505 73 228 2.0 7.0 0.00 0.00 0.00 21 1019.8
20260502212002 72 212 8.0 12.0 0.00 0.00 0.00 21 1019.8
20260502211457 72 258 5.0 7.0 0.00 0.00 0.00 22 1019.9
20260502210955 72 219 10.0 12.0 0.00 0.00 0.00 21 1020.1